Flag for U.S.A. Weather past 2 weeks in Inverness, Florida, U.S.A.

Now
73 °F

Clear.


Feels Like: 70 °F
Forecast: 73 / 97 °F
Wind: No wind

Location: Ocala Municipal

Current Time: Aug 20, 2014 at 3:56:39 AM

Latest Report: Aug 20, 2014 at 3:15 AM


Visibility: 10 mi

Pressure: 30.01 "Hg

Humidity: 94%

Dew point: 72 °F

Location of InvernessLocation

Historic Weather in Inverness — Graph

°F

Inverness temperature yesterday

Maximum temperature yesterday: 93 °F (at 2:50 PM)
Minimum temperature yesterday: 73 °F (at 3:35 AM)
Average temperature yesterday: 79 °F

Past Weeks' High & Low Weather Summary

 TemperatureHumidityPressure
High93 °F (Aug 6, 1:50 PM)100% (Aug 13, 6:50 AM)30.13 "Hg (Aug 13, 6:50 AM)
Low70 °F (Aug 16, 3:35 AM)44% (Aug 19, 4:50 PM)29.95 "Hg (Aug 12, 6:50 PM)
Average78 °F82%30.02 "Hg
* Reported Aug 5 2:15 AM — Aug 20 2:35 AM, Inverness, Weather by CustomWeather, © 2014

Note: Actual official high and low records may vary slightly from our data, if they occured in-between our weather recording intervals... More about our weather records

Advertising

Inverness weather history for previous 24 hours

 ConditionsComfort  
Time TempWeatherWind HumidityBarometerVisibility
2:35 AM
Aug 20
73 °FClear.No wind100%30.02 "Hg10 mi
1:55 AM75 °FClear.No wind94%30.02 "Hg10 mi
1:35 AM75 °FClear.3 mph94%30.02 "Hg10 mi
1:15 AM75 °FClear.No wind94%30.03 "Hg10 mi
12:55 AM75 °FClear.No wind94%30.03 "Hg10 mi
12:35 AM75 °FClear.3 mph89%30.02 "Hg10 mi
12:15 AM75 °FClear.5 mph94%30.01 "Hg10 mi
11:55 PM
Aug 19
77 °FClear.3 mph89%30.02 "Hg10 mi
11:35 PM77 °FClear.No wind89%30.01 "Hg10 mi
11:15 PM77 °FClear.3 mph89%30.00 "Hg10 mi
10:55 PM77 °FClear.3 mph89%30.01 "Hg10 mi
10:35 PM79 °FClear.5 mph84%30.01 "Hg10 mi
10:15 PM79 °FClear.6 mph79%30.01 "Hg10 mi
9:55 PM79 °FClear.5 mph79%30.01 "Hg10 mi
9:35 PM79 °FClear.3 mph79%30.01 "Hg10 mi
9:15 PM81 °FClear.3 mph74%30.00 "Hg10 mi
8:55 PM81 °FSunny.3 mph74%29.99 "Hg10 mi
8:35 PM82 °FSunny.5 mph70%29.99 "Hg10 mi
8:15 PM84 °FSunny.6 mph66%29.98 "Hg10 mi
7:55 PM84 °FSunny.6 mph66%29.98 "Hg10 mi
6:50 PM90 °FSunny.8 mph52%29.99 "Hg10 mi
5:50 PM91 °FSunny.8 mph46%29.98 "Hg10 mi
4:50 PM91 °FScattered clouds.9 mph44%29.98 "Hg10 mi
3:50 PM91 °FScattered clouds.10 mph49%29.98 "Hg10 mi
2:50 PM93 °FScattered clouds.10 mph47%29.99 "Hg10 mi
1:50 PM90 °FPassing clouds.9 mph55%30.01 "Hg10 mi
12:50 PM91 °FScattered clouds.12 mph49%30.04 "Hg10 mi
11:50 AM90 °FScattered clouds.8 mph55%30.05 "Hg10 mi
10:50 AM88 °FScattered clouds.8 mph62%30.05 "Hg10 mi
9:50 AM84 °FScattered clouds.8 mph74%30.05 "Hg10 mi
8:50 AM79 °FScattered clouds.3 mph89%30.04 "Hg10 mi
7:50 AM75 °FClear.3 mph94%30.03 "Hg10 mi
6:50 AM73 °FClear.3 mph94%30.01 "Hg9 mi
6:35 AM73 °FClear.3 mph94%30.00 "Hg10 mi
6:15 AM73 °FClear.No wind94%30.00 "Hg10 mi
5:55 AM73 °FClear.5 mph100%29.99 "Hg10 mi
5:35 AM73 °FClear.5 mph94%30.00 "Hg10 mi
5:15 AM73 °FClear.3 mph100%30.00 "Hg10 mi
4:55 AM73 °FClear.3 mph94%30.00 "Hg10 mi
4:35 AM73 °FClear.No wind100%29.99 "Hg10 mi
4:15 AM73 °FClear.No wind94%29.99 "Hg10 mi
3:55 AM73 °FClear.5 mph100%29.98 "Hg10 mi
3:35 AM73 °FClear.No wind100%29.98 "Hg10 mi
3:15 AM75 °FClear.No wind94%29.98 "Hg10 mi
Weather by CustomWeather, © 2014

See weather overviewHow to use our weather pages